Weather History for Glencoe, MN

Change the Weather History Date:

Sunday, March 2, 2014

  Actual Average (KHCD) Record (KHCD)
Temperature  
Mean Temperature -8 °F -  
Max Temperature 2 °F 35 °F 60 °F (1990)
Min Temperature -18 °F 15 °F -19 °F (2014)
Degree Days  
Heating Degree Days 73    
Moisture  
Dew Point -20 °F    
Average Humidity 56    
Maximum Humidity 67    
Minimum Humidity 46    
Precipitation  
Precipitation 0.00 in - - ()
Sea Level Pressure  
Sea Level Pressure 30.52 in    
Wind  
Wind Speed 9 mph (WNW)    
Max Wind Speed 16 mph    
Max Gust Speed 16 mph    
Visibility 10 miles    
Events      
Averages and records for this station are not official NWS values.
T = Trace of Precipitation, MM = Missing Value Source: NWS Daily Summary

Daily Weather History Graph

Daily Weather History Graph

Search for Another Location

Airport:

Trip Planner

Search our weather history database for the weather conditions in past years. The results will help you decide how hot, cold, wet, or windy it might be!

Date:

Astronomy

Mar. 02, 2014 Rise Set
Actual Time 6:52 AM CST 6:05 PM CST
Civil Twilight 6:22 AM CST 6:34 PM CST
Nautical Twilight 5:49 AM CST 7:08 PM CST
Astronomical Twilight 5:15 AM CST 7:42 PM CST
Moon 7:18 AM CST (3/2) 8:09 PM CST (3/2)
Length of Visible Light 12h 11m
Length of Day
11h 13m
Waxing Crescent, 3% of the Moon is Illuminated
Mar 2
Waxing Crescent
Mar 8
First Quarter
Mar 16
Full
Mar 23
Last Quarter
Mar 30
New

Hourly Weather History & Observations

Time (CST) Temp. Windchill Dew Point Humidity Pressure Visibility Wind Dir Wind Speed Gust Speed Precip Events Conditions
12:12 AM -8.5 °F -26.8 °F -22.0 °F 52% 30.53 in 10.0 mi WNW 10.4 mph - N/A   Mostly Cloudy
12:32 AM -9.0 °F -29.3 °F -22.9 °F 51% 30.53 in 10.0 mi NW 12.7 mph - N/A   Scattered Clouds
12:53 AM -9.9 °F -29.6 °F -23.8 °F 51% 30.54 in 10.0 mi WNW 11.5 mph - N/A   Clear
1:12 AM -10.8 °F -28.6 °F -24.7 °F 50% 30.53 in 10.0 mi NW 9.2 mph - N/A   Clear
1:33 AM -11.6 °F -29.5 °F -24.9 °F 52% 30.54 in 10.0 mi NW 9.2 mph - N/A   Clear
1:52 AM -12.3 °F -30.4 °F -25.6 °F 52% 30.54 in 10.0 mi NW 9.2 mph - N/A   Clear
2:13 AM -13.0 °F -31.3 °F -25.8 °F 53% 30.54 in 10.0 mi NW 9.2 mph - N/A   Clear
2:32 AM -13.5 °F -30.7 °F -26.0 °F 54% 30.55 in 10.0 mi NW 8.1 mph - N/A   Clear
2:53 AM -13.7 °F -33.3 °F -27.0 °F 51% 30.55 in 10.0 mi NW 10.4 mph - N/A   Clear
3:12 AM -13.9 °F -31.1 °F -27.4 °F 51% 30.53 in 10.0 mi NW 8.1 mph - N/A   Clear
3:33 AM -14.8 °F -30.8 °F -27.6 °F 53% 30.53 in 10.0 mi WNW 6.9 mph - N/A   Clear
3:52 AM -16.1 °F -28.6 °F -28.3 °F 54% 30.52 in 10.0 mi WNW 4.6 mph - N/A   Clear
4:12 AM -16.6 °F -32.9 °F -28.3 °F 55% 30.53 in 10.0 mi WNW 6.9 mph - N/A   Clear
4:32 AM -16.8 °F -34.6 °F -28.1 °F 56% 30.54 in 10.0 mi WNW 8.1 mph - N/A   Clear
4:52 AM -17.5 °F -34.0 °F -28.3 °F 58% 30.55 in 10.0 mi WNW 6.9 mph - N/A   Clear
5:13 AM -16.6 °F -31.3 °F -27.4 °F 58% 30.55 in 10.0 mi West 5.8 mph - N/A   Clear
5:32 AM -15.5 °F -28.0 °F -26.3 °F 58% 30.55 in 10.0 mi WSW 4.6 mph - N/A   Clear
5:53 AM -16.2 °F -30.8 °F -27.0 °F 58% 30.55 in 10.0 mi West 5.8 mph - N/A   Clear
6:12 AM -17.1 °F -31.9 °F -27.6 °F 59% 30.55 in 10.0 mi West 5.8 mph - N/A   Clear
6:32 AM -17.7 °F -28.0 °F -27.9 °F 60% 30.55 in 10.0 mi WSW 3.5 mph - N/A   Clear
6:53 AM -18.6 °F -29.1 °F -27.8 °F 63% 30.55 in 10.0 mi WSW 3.5 mph - N/A   Clear
7:12 AM -18.4 °F -31.4 °F -27.6 °F 63% 30.56 in 10.0 mi WSW 4.6 mph - N/A   Clear
7:33 AM -17.9 °F -32.8 °F -27.2 °F 62% 30.56 in 10.0 mi West 5.8 mph - N/A   Clear
7:53 AM -17.1 °F -33.6 °F -26.3 °F 63% 30.55 in 10.0 mi WNW 6.9 mph - N/A   Clear
8:13 AM -15.5 °F -31.6 °F -25.8 °F 60% 30.55 in 10.0 mi WNW 6.9 mph - N/A   Clear
8:32 AM -13.7 °F -27.8 °F -24.9 °F 57% 30.55 in 10.0 mi WNW 5.8 mph - N/A   Clear
8:53 AM -11.7 °F -27.1 °F -24.0 °F 55% 30.55 in 10.0 mi NW 6.9 mph - N/A   Clear
9:12 AM -10.3 °F -23.8 °F -22.9 °F 54% 30.55 in 10.0 mi NW 5.8 mph - N/A   Clear
9:33 AM -8.9 °F -23.6 °F -22.0 °F 53% 30.55 in 10.0 mi WNW 6.9 mph - N/A   Clear
9:53 AM -8.3 °F -24.3 °F -21.3 °F 53% 30.55 in 10.0 mi WNW 8.1 mph - N/A   Clear
10:12 AM -7.1 °F -21.4 °F -20.4 °F 52% 30.55 in 10.0 mi West 6.9 mph - N/A   Clear
10:33 AM -6.2 °F -25.7 °F -19.7 °F 52% 30.55 in 10.0 mi West 12.7 mph 16.1 mph N/A   Clear
10:52 AM -5.8 °F -22.4 °F -19.7 °F 51% 30.54 in 10.0 mi West 9.2 mph - N/A   Clear
11:13 AM -5.1 °F -19.1 °F -19.1 °F 51% 30.55 in 10.0 mi West 6.9 mph - N/A   Clear
11:33 AM -4.5 °F -20.8 °F -18.6 °F 51% 30.55 in 10.0 mi West 9.2 mph - N/A   Clear
11:52 AM -4.0 °F -21.2 °F -18.2 °F 51% 30.55 in 10.0 mi West 10.4 mph - N/A   Clear
12:13 PM -3.3 °F -18.2 °F -17.0 °F 52% 30.56 in 10.0 mi WSW 8.1 mph - N/A   Clear
12:33 PM -2.4 °F -20.1 °F -16.4 °F 51% 30.56 in 10.0 mi West 11.5 mph 16.1 mph N/A   Clear
12:52 PM -1.7 °F -18.3 °F -15.5 °F 52% 30.55 in 10.0 mi West 10.4 mph - N/A   Clear
1:13 PM -0.9 °F -16.4 °F -14.4 °F 53% 30.53 in 10.0 mi West 9.2 mph - N/A   Clear
1:32 PM -0.6 °F -20.1 °F -14.6 °F 52% 30.52 in 10.0 mi West 15.0 mph - N/A   Clear
1:52 PM 0.3 °F -19.6 °F -13.7 °F 52% 30.51 in 10.0 mi West 16.1 mph - N/A   Clear
2:13 PM 0.5 °F -17.3 °F -13.4 °F 52% 30.51 in 10.0 mi West 12.7 mph - N/A   Clear
2:32 PM 1.0 °F -17.3 °F -13.2 °F 51% 30.50 in 10.0 mi West 13.8 mph - N/A   Clear
2:52 PM 1.4 °F -16.1 °F -13.2 °F 51% 30.49 in 10.0 mi West 12.7 mph - N/A   Clear
3:13 PM 2.1 °F -13.6 °F -13.9 °F 47% 30.50 in 10.0 mi West 10.4 mph - N/A   Clear
3:32 PM 2.3 °F -12.4 °F -14.1 °F 46% 30.50 in 10.0 mi WSW 9.2 mph - N/A   Clear
3:53 PM 2.5 °F -14.8 °F -14.1 °F 46% 30.50 in 10.0 mi West 12.7 mph - N/A   Clear
4:13 PM 2.7 °F -13.8 °F -14.1 °F 46% 30.50 in 10.0 mi West 11.5 mph - N/A   Clear
4:32 PM 2.7 °F -12.0 °F -13.0 °F 48% 30.49 in 10.0 mi West 9.2 mph - N/A   Clear
4:53 PM 2.7 °F -13.8 °F -13.0 °F 48% 30.49 in 10.0 mi West 11.5 mph - N/A   Clear
5:13 PM 2.3 °F -13.4 °F -12.5 °F 50% 30.49 in 10.0 mi West 10.4 mph - N/A   Clear
5:32 PM 1.8 °F -10.8 °F -12.3 °F 52% 30.49 in 10.0 mi West 6.9 mph - N/A   Clear
5:53 PM 0.5 °F -14.6 °F -12.1 °F 55% 30.48 in 10.0 mi West 9.2 mph - N/A   Clear
6:13 PM -0.2 °F -16.5 °F -12.1 °F 57% 30.47 in 10.0 mi West 10.4 mph - N/A   Clear
6:32 PM -0.4 °F -14.7 °F -12.1 °F 58% 30.47 in 10.0 mi West 8.1 mph - N/A   Clear
6:53 PM -1.3 °F -14.5 °F -12.3 °F 60% 30.47 in 10.0 mi West 6.9 mph - N/A   Clear
7:13 PM -3.1 °F -16.7 °F -12.8 °F 63% 30.48 in 10.0 mi WNW 6.9 mph - N/A   Clear
7:32 PM -3.6 °F -17.3 °F -13.5 °F 63% 30.48 in 10.0 mi WNW 6.9 mph - N/A   Clear
7:53 PM -4.2 °F -18.0 °F -13.9 °F 63% 30.48 in 10.0 mi WNW 6.9 mph - N/A   Clear
8:12 PM -3.3 °F -16.9 °F -13.0 °F 63% 30.47 in 10.0 mi WNW 6.9 mph - N/A   Clear
8:33 PM -6.2 °F -18.9 °F -15.0 °F 66% 30.48 in 10.0 mi WNW 5.8 mph - N/A   Clear
8:52 PM -5.1 °F -19.1 °F -14.6 °F 63% 30.48 in 10.0 mi WNW 6.9 mph - N/A   Clear
9:12 PM -4.9 °F -18.8 °F -14.1 °F 65% 30.49 in 10.0 mi NW 6.9 mph - N/A   Clear
9:33 PM -5.3 °F -20.6 °F -14.8 °F 63% 30.49 in 10.0 mi NW 8.1 mph - N/A   Clear
9:52 PM -6.2 °F -20.4 °F -15.7 °F 63% 30.50 in 10.0 mi NW 6.9 mph - N/A   Clear
10:13 PM -5.8 °F -19.9 °F -15.7 °F 62% 30.51 in 10.0 mi NW 6.9 mph - N/A   Clear
10:32 PM -5.8 °F -18.4 °F -15.3 °F 63% 30.51 in 10.0 mi NW 5.8 mph - N/A   Clear
10:52 PM -8.3 °F -21.4 °F -18.2 °F 62% 30.51 in 10.0 mi NW 5.8 mph - N/A   Clear
11:13 PM -8.7 °F -20.0 °F -17.1 °F 66% 30.50 in 10.0 mi NW 4.6 mph - N/A   Clear
11:32 PM -7.4 °F -18.6 °F -15.7 °F 67% 30.51 in 10.0 mi West 4.6 mph - N/A   Clear
11:53 PM -7.6 °F -16.5 °F -16.4 °F 65% 30.51 in 10.0 mi WNW 3.5 mph - N/A   Clear